Погода в Ставрополе

Погода в Ставрополе : погода сейчас, прогноз погоды и архив. Всё, что Вы хотите узнать о погоде в Ставрополе!

Поиск расширенной информации на нашем сайте:

Другие новости

Новости СМИ2

Главная страница сайта

Новости сайта

03.07.2017

Напоминаем, что на нашем специализированном сайте Метеоцентр.Азия вы можете получить высокодетализированные автоматические прогнозы погоды по пунктам России, СНГ и мира в авиационном формате (включающие направление и скорость ветра, видимость, явления погоды, количество и форму облачности, нижнюю и верхнюю границу облачности).


Погода в Ставрополе - сегодня

Время (UTC), дата Ветер
(°,м/с) 
Видим.   Явления Облачность Т
(°С)
Тd
(°С)
f(%) Тe
(°С)
Pmin
(гПа)
dP
(гПа)
Po
(мм)
O2
(г/м3)
Тmin Tmax R s Состояние
почвы
00 18.08.17 080 (В) 6{10}  20000 м    4/0 средняя 
[Ac trans]
+19.7 +12 61 +25  1012.8  -0.3  721  269           
03 18.08.17 070 (В) 20000 м    8/4 1000 м средняя 
[Sc|Ac trans]
+19.6 +10.8 57 +23  1013.7  0.9  722  269  +18.4        сухая 
06 18.08.17 080 (В) 20000 м    9/4 1000 м кучево-дожд., средняя 
[Cb calv|Ac trans]
+22.3 +10.6 47 +25  1014.2  0.9  722  267           
09 18.08.17 120 (ЮВ) 20000 м    9/3 1000 м кучево-дожд., средняя, верхняя 
[Cb calv|Ac trans|Ci fib]
+24.7 +12.2 46 +30  1015.1  1.3  723  265           
12 18.08.17 120 (ЮВ) 6{10}  20000 м    9/3 1000 м средняя 
[Sc diur, vesp|Ac trans]
+24.1 +8.6 37 +24  1015.7  0.4  724  266           
15 18.08.17 110 (В) 20000 м  {дождь}  6/0 средняя 
[Ac trans]
+23.9 +10.3 42 +26  1015.1  -0.5  723  266    +25.5  0.5     
18 18.08.17 110 (В) 20000 м  {дождь}  4/0 средняя 
[Ac trans]
+19.2 +11.1 59 +23  1016.6  0.6  724  270           
21 18.08.17 100 (В) 20000 м    3/0 средняя 
[Ac trans]
+16.8 +12 73 +22  1016.4  -0.5  723  272           
00 19.08.17 070 (В) 20000 м    ясно 
+14.7 +11.4 81 +19  1016.8  -0.1  723  274           
03 19.08.17 080 (В) 20000 м    6/0 средняя, верхняя 
[Ac As|Ci sp]
+15.8 +12.3 80 +21  1017.2  0.6  724  273  +14.2        сухая 
06 19.08.17 090 (В) 10-14{14}  20000 м    6/0 верхняя 
[Ci fib]
+24.3 +8.8 37 +25  1016.8  724  266           
09 19.08.17 100 (В) 8-13{15}  20000 м    8/0 средняя, верхняя 
[Ac trans|Ci fib]
+28.5 +6 24 +29  1015.3  -0.8  724  263           
12 19.08.17 090 (В) 8-12{17}  20000 м    6/0 верхняя 
[Ci fib]
+30.1 +4.5 20 +30  1014.1  -0.9  723  262           
15 19.08.17 090 (В) 4{12}  20000 м    8/0 средняя 
[Ac trans]
+27.4 +5.5 25 +27  1015.1  0.5  724  264    +30.5       
18 19.08.17 190 (Ю) 20000 м    8/0 средняя 
[Ac trans]
+22 +13 57 +28  1016.5  0.5  724  267           
21 19.08.17 110 (В) 20000 м    3/0 средняя 
[Ac trans]
+19.4 +13 66 +26  1016.2  -0.7  723  270           
00 20.08.17 080 (В) 20000 м    ясно 
+17.2 +13.1 77 +24  1016.2  -0.4  723  271           
03 20.08.17 080 (В) 20000 м    3/0 средняя 
[Ac trans]
+16.2 +11.1 72 +19  1016.4  723  273  +15.3        сухая 
06 20.08.17 100 (В) 20000 м    3/0 средняя 
[Ac trans]
+24.7 +9.2 37 +26  1015.3  0.4  723  266           
09 20.08.17 100 (В) 8-13{15}  20000 м    6/1 600 м средняя, верхняя 
[Cu hum|Ac trans|Ci fib]
+29.3 +5.4 22 +29  1013.3  -1.2  722  262           
12 20.08.17 110 (В) 7-10{14}  20000 м    9/3 600 м кучево-дожд., средняя 
[Cb calv|Ac trans]
+28.7 +3.6 20 +29  1012.8  -0.6  722  263           
15 20.08.17 110 (В) 3{13}  20000 м    9/3 1000 м средняя 
[Sc diur, vesp|Ac trans]
+24.9 +8.7 36 +25  1012.9  -0.5  722  265    +30.8       
18 20.08.17 110 (В) 20000 м    3/0 средняя 
[Ac trans]
+20.3 +12.6 61 +26  1014.5  0.8  722  268           
21 20.08.17 100 (В) 5{11}  20000 м    3/0 средняя 
[Ac trans]
+20.3 +8.4 46 +20  1014.6  0.1  722  269           
00 21.08.17 090 (В) 20000 м    ясно 
+19.2 +9.1 52 +20  1014.3  -0.5  722  270           
Время (UTC), дата Ветер
(°,м/с) 
Видим.   Явления Облачность Т
(°С)
Тd
(°С)
f(%) Тe
(°С)
Pmin
(гПа)
dP
(гПа)
Po
(мм)
O2
(г/м3)
Тmin Tmax R s Состояние
почвы

Для получения пояснительной информации подведите курсор к названию столбца.

ПОГОДА в Ставрополе - архив

Всё, что Вы хотите узнать о погоде в Ставрополе - удобно и подробно!

Выберите нужную дату (начиная с 1 января 2015* года) и нажмите кнопку "Найти".
Будут отображены архивные сводки погоды по пункту Ставрополь, начиная с указанной даты.


Отображать данные в формате CSV (для использования в таблицах Excel)


Внимание! Наш архив погоды предназначен исключительно для личного некоммерческого использования в познавательных целях. Если Вам необходимы официальные справки о состоянии погоды (для производственных, юридических, коммерческих и т.п. целей), обращайтесь в органы Росгидромета.

*Примечание: данная дата относится к архиву по метеостанциям СССР (Россия, СНГ, Балтия).
Архив по метеостанциям Зарубежной Европы и Азии (кроме Китая) хранится 10 дней, по другим регионам земного шара (Китай, Африка, Америка, Австралия, Океания) - 1 день.

Ставрополь - район местоположения метеостанции


Название, широта, долгота, высота метеостанции:
Ставрополь 45.1°ш. 42.1°д. 452 м над ур. моря [Российская Федерация]

Дополнительная информация

В oтличие oт бoльшинства пoгoдных сайтoв мы публикуем пoдрoбную метеoинфoрмацию в детальнoм прoфессиoнальнoм фoрмате.

Характеристики температуры и влажнoсти вoздуха измеряются на высoте 2 м в тени вдали oт зданий и деревьев.
Скoрoсть ветра измеряется на высoте 10 м (на урoвне рoста челoвека скoрoсть ветра ниже в 1.5-2 раза). Если метеoстанция нахoдится в гoрoде или в лесу, тo скoрoсть ветра занижена на 2-4 м/с пo сравнению с oткрытым местoм. Скoрoсть ветра над акватoриями крупных рек и oзёр, а также на вершинах хoлмoв на 2-5 м/с выше, чем в oбычных услoвиях.
Атмoсфернoе давление в разных тoчках местнoсти мoжет значительнo oтличаться oт давления на метеoстанции, в зависимoсти oт услoвий рельефа (при пoдъёме на 10 м давление пoнижается примернo на 1 мм рт.ст.).